Westfield, MA

2:20 AM EDT on August 29, 2016 (GMT -0400)
Barnes Municipal

Weather History for KBAF - December, 2012

Change the Weather History Date:

Thursday, December 6, 2012

  Actual Average Record
Temperature  
Mean Temperature 31 °F -  
Max Temperature 41 °F 39 °F 64 °F (2001)
Min Temperature 21 °F 22 °F 5 °F (2002)
Degree Days  
Heating Degree Days 34    
Moisture  
Dew Point 15 °F    
Average Humidity 57    
Maximum Humidity 82    
Minimum Humidity 33    
Precipitation  
Precipitation 0.00 in - - ()
Sea Level Pressure  
Sea Level Pressure 30.30 in    
Wind  
Wind Speed 4 mph (NNW)    
Max Wind Speed 9 mph    
Max Gust Speed -    
Visibility 10 miles    
Events      
Averages and records for this station are not official NWS values.
T = Trace of Precipitation, MM = Missing Value Source: NWS Daily Summary

Daily Weather History Graph

Daily Weather History Graph

Search for Another Location

Airport or City:

Trip Planner

Search our weather history database for the weather conditions in past years. The results will help you decide how hot, cold, wet, or windy it might be!

Date:

Astronomy

Dec. 06, 2012 Rise Set
Actual Time 7:05 AM EST 4:18 PM EST
Civil Twilight 6:33 AM EST 4:50 PM EST
Nautical Twilight 5:58 AM EST 5:25 PM EST
Astronomical Twilight 5:24 AM EST 5:59 PM EST
Moon No Moon Rise 11:50 AM EST (12/6)
Length of Visible Light 10h 16m
Length of Day
9h 13m
Waning Gibbous, 49% of the Moon is Illuminated
Dec 6
Waning Gibbous
Dec 13
New
Dec 20
First Quarter
Dec 28
Full
Jan 4
Last Quarter

Hourly Weather History & Observations

Time (EST) Temp. Windchill Dew Point Humidity Pressure Visibility Wind Dir Wind Speed Gust Speed Precip Events Conditions
12:53 AM 30.0 °F 24.1 °F 12.0 °F 47% 30.22 in 10.0 mi North 5.8 mph - N/A   Clear
1:53 AM 30.0 °F 22.4 °F 12.0 °F 47% 30.24 in 10.0 mi NNW 8.1 mph - N/A   Clear
2:53 AM 27.0 °F 23.0 °F 12.9 °F 56% 30.26 in 10.0 mi NW 3.5 mph - N/A   Clear
3:53 AM 24.1 °F 17.0 °F 12.9 °F 62% 30.26 in 10.0 mi North 5.8 mph - N/A   Clear
4:53 AM 27.0 °F 18.0 °F 14.0 °F 58% 30.27 in 10.0 mi NNW 9.2 mph - N/A   Clear
5:53 AM 26.1 °F 19.4 °F 12.9 °F 58% 30.30 in 10.0 mi NNW 5.8 mph - N/A   Clear
6:53 AM 21.9 °F 13.4 °F 12.9 °F 68% 30.32 in 10.0 mi NNW 6.9 mph - N/A   Clear
7:53 AM 25.0 °F - 15.1 °F 66% 30.35 in 10.0 mi Calm Calm - N/A   Clear
8:53 AM 30.0 °F 23.2 °F 15.1 °F 54% 30.36 in 10.0 mi NNW 6.9 mph - N/A   Clear
9:53 AM 33.1 °F 28.7 °F 15.1 °F 48% 30.36 in 10.0 mi NNE 4.6 mph - N/A   Clear
10:53 AM 35.1 °F 31.0 °F 15.1 °F 44% 30.34 in 10.0 mi ENE 4.6 mph - N/A   Clear
11:53 AM 36.0 °F - 14.0 °F 41% 30.32 in 10.0 mi Calm Calm - N/A   Clear
12:53 PM 39.0 °F - 15.1 °F 38% 30.30 in 10.0 mi Calm Calm - N/A   Clear
1:53 PM 39.9 °F - 15.1 °F 36% 30.29 in 10.0 mi Calm Calm - N/A   Clear
2:53 PM 41.0 °F - 14.0 °F 33% 30.29 in 10.0 mi Calm Calm - N/A   Clear
3:53 PM 39.9 °F - 14.0 °F 35% 30.29 in 10.0 mi Calm Calm - N/A   Clear
4:53 PM 33.1 °F - 18.0 °F 54% 30.30 in 10.0 mi Calm Calm - N/A   Clear
5:53 PM 28.9 °F 25.2 °F 16.0 °F 58% 30.30 in 10.0 mi North 3.5 mph - N/A   Clear
6:53 PM 26.1 °F 21.9 °F 17.1 °F 69% 30.31 in 10.0 mi SSW 3.5 mph - N/A   Clear
7:53 PM 25.0 °F - 18.0 °F 75% 30.31 in 10.0 mi Calm Calm - N/A   Clear
8:53 PM 25.0 °F - 17.1 °F 72% 30.32 in 10.0 mi Calm Calm - N/A   Clear
9:53 PM 23.0 °F - 17.1 °F 78% 30.31 in 10.0 mi Calm Calm - N/A   Clear
10:53 PM 21.9 °F - 17.1 °F 82% 30.31 in 10.0 mi Calm Calm - N/A   Clear
11:53 PM 21.9 °F - 17.1 °F 82% 30.30 in 10.0 mi Calm Calm - N/A   Clear